Location: Bay Shore Mobile Home Park
(38.5762°N, 75.0841°W)
Time: 09:43:48
(UTC+00:00)

SL-16 R/B - Pass Details

Date: 15 November 2025
Orbit: 985 x 1006 km, 99.8° (Epoch: 05 December)

Event Time Altitude Azimuth Distance (km) Brightness Sun altitude
Rises 22:13:59 0° 8° (N) 3,742 5.3 -5.7°
Reaches altitude 10° 22:16:33 10° 3° (N) 2,787 4.7 -6.2°
Maximum altitude 22:22:30 48° 291° (WNW) 1,292 3.6 -7.3°
Drops below altitude 10° 22:28:25 10° 219° (SW) 2,763 5.8 -8.4°
Sets 22:30:57 0° 214° (SW) 3,706 6.4 -8.9°
